EW3156 Weather Reports


Display with metric or nautical units.
time (UTC)temp
F
wind
direction
speed
MPH
gust
MPH
rain 1hr
in
rain 24hr
in
rain mn
in
humidity
%
barometer
mb
20260502223046 67 201 2.0 6.0 0.00 0.02 0.01 43 1015.1
20260502221545 67 140 2.0 7.0 0.00 0.02 0.01 42 1015.1
20260502220043 68 80 2.0 7.0 0.00 0.02 0.01 40 1015.1
20260502214538 68 269 2.0 12.0 0.00 0.02 0.01 40 1014.8
20260502213048 69 198 2.0 8.0 0.00 0.02 0.01 41 1014.9
20260502211544 70 240 2.0 7.0 0.00 0.02 0.01 39 1014.8
20260502210036 70 130 1.0 7.0 0.00 0.02 0.01 39 1014.9
20260502204546 70 86 3.0 9.0 0.00 0.02 0.01 37 1014.9
20260502203138 71 321 2.0 6.0 0.00 0.02 0.01 37 1015.1
20260502201532 70 106 3.0 8.0 0.00 0.02 0.01 35 1015.1
20260502200032 70 21 2.0 7.0 0.00 0.02 0.01 39 1015.1
20260502194530 70 264 1.0 8.0 0.00 0.02 0.01 37 1015.1
20260502193029 70 88 2.0 10.0 0.00 0.02 0.01 39 1015.1
20260502191531 69 211 1.0 7.0 0.00 0.02 0.01 44 1015.1
20260502190027 70 233 2.0 5.0 0.00 0.02 0.01 43 1015.3
20260502184523 69 128 1.0 4.0 0.00 0.02 0.01 42 1015.4
20260502183021 67 309 2.0 9.0 0.00 0.02 0.01 42 1015.6
20260502181524 67 111 4.0 10.0 0.00 0.02 0.01 45 1015.7
20260502163105 61 274 2.0 9.0 0.00 0.02 0.01 58 1016.3
20260502161559 60 253 2.0 7.0 0.00 0.02 0.01 60 1016.4
20260502151552 58 272 1.0 4.0 0.00 0.02 0.01 68 1015.8
20260502123021 51 119 0.0 1.0 0.00 0.02 0.01 87 1014.3
20260502121517 51 134 0.0 1.0 0.00 0.02 0.01 89 1014.2
20260502114512 50 134 0.0 1.0 0.00 0.02 0.01 90 1013.6
20260502113017 50 134 0.0 1.0 0.00 0.02 0.01 90 1013.6
20260502111509 50 134 0.0 0.0 0.00 0.02 0.01 92 1013.8
20260502110008 50 134 0.0 1.0 0.00 0.02 0.01 90 1013.7
20260502104521 50 134 0.0 3.0 0.00 0.02 0.01 92 1013.5
20260502103004 51 147 0.0 2.0 0.00 0.02 0.01 94 1013.6
20260502101502 51 147 0.0 1.0 0.00 0.02 0.01 96 1013.4
20260502090104 53 147 0.0 1.0 0.00 0.02 0.01 97 1013.6
20260502070041 56 147 0.0 1.0 0.00 0.02 0.01 98 1013.8
20260502064547 56 147 0.0 1.0 0.00 0.02 0.01 98 1013.9
20260502063040 56 147 0.0 0.0 0.00 0.02 0.01 98 1013.9
20260502061539 56 147 0.0 0.0 0.00 0.02 0.01 98 1013.8
20260502060037 56 147 0.0 0.0 0.00 0.02 0.01 98 1013.8
20260502054537 56 147 0.0 0.0 0.01 0.02 0.01 98 1013.8
20260502053036 56 147 0.0 0.0 0.01 0.02 0.01 98 1013.6
20260502051557 56 147 0.0 0.0 0.01 0.02 0.01 98 1013.7
20260502050035 56 147 0.0 0.0 0.01 0.02 0.01 98 1013.5
20260502044532 56 147 0.0 0.0 0.00 0.01 0.01 98 1013.8
20260502043031 56 147 0.0 0.0 0.00 0.01 0.01 97 1013.4
20260502041531 56 147 0.0 0.0 0.00 0.01 0.01 97 1013.4
20260502040029 56 147 0.0 0.0 0.00 0.01 0.01 97 1013.2
20260502034538 56 147 0.0 0.0 0.00 0.01 0.01 97 1013.3
20260502033040 56 147 0.0 0.0 0.00 0.01 0.01 96 1013.5
20260502031527 56 147 0.0 0.0 0.00 0.01 0.01 96 1013.7
20260502030027 56 146 0.0 2.0 0.00 0.01 0.01 96 1014.0
20260502024530 57 146 0.0 1.0 0.00 0.01 0.01 96 1013.9
20260502023029 56 146 0.0 1.0 0.00 0.01 0.01 96 1013.9
20260502021525 56 146 0.0 0.0 0.01 0.01 0.01 95 1014.5
20260502020024 56 146 0.0 0.0 0.01 0.01 0.01 94 1014.5
20260502014526 57 146 0.0 0.0 0.01 0.01 0.01 93 1014.3
20260502013023 57 146 0.0 0.0 0.01 0.01 0.01 91 1014.3
20260502011528 58 146 0.0 0.0 0.00 0.00 0.00 89 1014.1
20260502010022 58 146 0.0 0.0 0.00 0.00 0.00 87 1013.7
20260502004522 58 146 0.0 0.0 0.00 0.00 0.00 85 1013.4
20260502003022 59 146 0.0 0.0 0.00 0.00 0.00 84 1013.3
20260502001520 59 146 0.0 0.0 0.00 0.00 0.00 84 1013.3
20260502000021 60 146 0.0 0.0 0.00 0.00 0.00 82 1013.1
20260501234524 60 146 0.0 1.0 0.00 0.00 0.00 82 1013.0
20260501233018 61 146 0.0 0.0 0.00 0.00 0.00 80 1012.9
20260501231532 61 146 0.0 0.0 0.00 0.00 0.00 80 1012.9
20260501230022 62 146 0.0 0.0 0.00 0.00 0.00 77 1012.9
20260501224517 63 146 0.0 2.0 0.00 0.00 0.00 76 1012.8